Effective Sunday, March 17, 2024, the National Weather Service National Data Buoy Center will discontinue its Dial-A-Buoy Interactive Voice Response system. For more information, see Service Change Notice 24-06 (PDF).

Station FRDF1 - 8720030 - Fernandina Beach, FL Image indicating link to RSS feed of recent meteorological observations for station FRDF1


Conditions at FRDF1 as of
(10:48 am EST)
1548 GMT on 03/03/2024:
     

Click on the graph icon in the table below to see a time series plot of the last five days of that observation.

5-day plot - Wind Direction Wind Direction (WDIR):NNE ( 30 deg true )
5-day plot - Wind Speed Wind Speed (WSPD): 5.1 kts
5-day plot - Wind Gust Wind Gust (GST): 7.0 kts
5-day plot - Atmospheric Pressure Atmospheric Pressure (PRES):30.15 in
5-day plot - Air Temperature Air Temperature (ATMP): 65.3 °F
5-day plot - Water Temperature Water Temperature (WTMP): 63.1 °F
5-day plot - Wind Speed at 10 Meters Wind Speed at 10 meters (WSPD10M): 5.8 kts
5-day plot - Wind Speed at 20 Meters Wind Speed at 20 meters (WSPD20M): 5.8 kts
5-day plot -  Wind Speed, Wind Gust and Atmospheric Pressure Combined plot of Wind Speed, Gust, and Air Pressure
NOS Water Level Observation Network Water Level
Previous observations
TIME
(EST)
5-day plot - Wind Direction
WDIR
 
5-day plot - Wind Speed
WSPD
kts
5-day plot - Wind Gust
GST
kts
5-day plot - Wave Height
WVHT
ft
5-day plot - Dominant Wave Period
DPD
sec
5-day plot - Average Wave Period
APD
sec
5-day plot - Mean Wave Direction
MWD
 
5-day plot - Atmospheric Pressure
PRES
in
5-day plot - Pressure Tendency
PTDY
in
5-day plot - Air Temperature
ATMP
°F
5-day plot - Water Temperature
WTMP
°F
5-day plot - Dew Point
DEWP
°F
5-day plot - Salinity
SAL
psu
5-day plot - Visibility
VIS
nmi
5-day plot - Tide (above MLLW)
TIDE
ft
2024-03-03 10:42 am NE 4.1 8.0----30.15- 65.3 63.1----
2024-03-03 10:36 amNNE 6.0 7.0----30.15- 65.7 63.1----
2024-03-03 10:30 amNNE 1.9 4.1----30.15- 65.8 63.1----
2024-03-03 10:24 am NE 2.9 5.1----30.15- 66.0 63.1----
2024-03-03 10:18 amNNE 4.1 6.0----30.15- 66.2 63.1----
2024-03-03 10:12 am NE 1.0 4.1----30.14- 66.7 63.3----
2024-03-03 10:06 am NE 2.9 5.1----30.14- 66.4 63.3----
2024-03-03 10:00 am NE 2.9 6.0----30.14+0.03 66.6 63.3----
2024-03-03 09:54 amENE 4.1 6.0----30.14- 66.6 63.3----
2024-03-03 09:48 am E 2.9 5.1----30.14- 66.6 63.3----
2024-03-03 09:42 amENE 4.1 5.1----30.14- 66.4 63.3----
2024-03-03 09:36 am NE 5.1 7.0----30.14- 65.8 63.3----
2024-03-03 09:30 am NE 2.9 6.0----30.14-------
2024-03-03 09:24 amENE 2.9 6.0----30.14-------
2024-03-03 09:18 am NE 1.9 5.1----30.14-- 63.1----
2024-03-03 09:12 am NE 2.9 6.0----30.14-- 63.1----
2024-03-03 09:06 amNNE 5.1 7.0----30.14-- 63.1----
2024-03-03 09:00 am NE 4.1 6.0------ 64.8 63.3----
2024-03-03 08:54 am NE 2.9 5.1------ 64.9 63.3----
2024-03-03 08:48 amENE 1.9 5.1----30.13-- 63.1----
2024-03-03 08:42 am NE 2.9 5.1----30.13-- 63.1----
2024-03-03 08:36 amENE 2.9 4.1----30.13-- 63.3----
2024-03-03 08:30 amENE 1.9 2.9----30.12-- 63.1----
2024-03-03 08:24 amENE 1.9 4.1----30.12-- 63.1----
2024-03-03 08:18 am NE 1.9 6.0----30.12- 64.8 63.1----
2024-03-03 08:12 am NE 2.9 5.1----30.11- 64.9 63.1----
2024-03-03 08:06 am- 0.0 4.1----30.11- 64.4 63.1----
2024-03-03 08:00 am NE 1.9 2.9----30.11+0.03 64.0-----
2024-03-03 07:54 am- 0.0 2.9----30.12- 64.0-----
2024-03-03 07:48 amNNE 1.9 4.1----30.11-- 63.0----
2024-03-03 07:42 am NE 1.9 2.9----30.12-- 63.0----
2024-03-03 07:36 amNNE 1.0 4.1----30.12-- 63.0----
2024-03-03 07:30 am---------- 62.8----
2024-03-03 07:24 am---------- 62.8----
2024-03-03 07:18 amNNE 4.1 6.0----30.11- 62.2 62.6----
2024-03-03 07:12 amNNE 2.9 6.0----30.11- 62.1 62.6----
2024-03-03 07:06 amNNE 2.9 6.0----30.11- 61.9 62.6----
2024-03-03 07:00 am NE 1.9 5.1----30.11+0.04 61.9 62.4----
2024-03-03 06:54 am NE 1.0 5.1----30.11- 62.1 62.2----
2024-03-03 06:48 amENE 1.9 4.1----30.11- 61.9 62.2----
2024-03-03 06:42 am NE 1.9 5.1----30.11- 61.9 62.1----
2024-03-03 06:36 am NE 1.9 4.1----30.11- 61.9 62.1----
2024-03-03 06:30 amENE 2.9 5.1----30.11- 61.7 61.9----
2024-03-03 06:24 am NE 2.9 5.1----30.11- 61.7 61.9----
2024-03-03 06:18 amNNE 1.9 5.1----30.11- 61.7 61.7----
2024-03-03 06:12 am NE 1.9 5.1----30.11- 61.9 61.7----
2024-03-03 06:06 am NE 1.9 8.0----30.11- 61.7 61.7----
2024-03-03 06:00 am NE 2.9 7.0----30.11+0.04- 61.7----
2024-03-03 05:54 amNNE 4.1 6.0----30.11-- 61.5----
2024-03-03 05:48 amNNE 4.1 7.0----30.11- 62.6 61.5----
2024-03-03 05:42 amNNE 4.1 7.0----30.11- 62.8 61.5----
2024-03-03 05:36 amNNE 1.0 7.0----30.11- 62.8 61.5----
2024-03-03 05:30 am N 5.1 7.0----30.10- 62.8 61.5----
2024-03-03 05:24 am N 4.1 5.1----30.10- 63.0 61.5----
2024-03-03 05:18 am N 4.1 5.1----30.09- 63.0 61.5----
2024-03-03 05:12 am N 2.9 5.1----30.09- 63.1 61.3----
2024-03-03 05:06 am N 4.1 5.1----30.09- 63.0 61.3----
2024-03-03 05:00 am N 2.9 5.1----30.09+0.00 63.0 61.3----
2024-03-03 04:54 am N 4.1 5.1----30.09- 63.1 61.3----
2024-03-03 04:48 amNNW 2.9 5.1----30.09- 63.1 61.3----
2024-03-03 04:42 amNNW 1.9 2.9----30.08- 63.3 61.3----
2024-03-03 04:36 amNNW 2.9 4.1----30.08- 63.5 61.3----
2024-03-03 04:30 amNNW 2.9 2.9----30.08- 63.9 61.2----
2024-03-03 04:24 am NW 1.0 1.9----30.08- 63.9 61.2----
2024-03-03 04:18 am- 0.0 1.0----30.07- 63.9 61.2----
2024-03-03 04:12 am- 0.0 0.0----30.07- 64.4 61.2----
2024-03-03 04:06 am- 0.0 1.0----30.07- 64.4 61.2----
2024-03-03 04:00 am- 0.0 1.9----30.07-0.03 64.2 61.0----
2024-03-03 03:54 am W 1.9 2.9----30.07- 63.9 61.0----
2024-03-03 03:48 am W 1.9 2.9----30.07- 63.7 61.0----
2024-03-03 03:42 am W 1.9 2.9----30.07- 63.7 60.8----
2024-03-03 03:36 amWNW 1.9 2.9----30.07- 64.2 60.8----
2024-03-03 03:30 amWNW 1.9 2.9----30.07- 64.2 60.6----
2024-03-03 03:24 am NW 1.0 1.9----30.07- 64.2 60.6----
2024-03-03 03:18 am W 1.0 1.9----30.08- 64.6 60.4----
2024-03-03 03:12 am- 0.0 1.0----30.07- 64.9 60.3----
2024-03-03 03:06 am- 0.0 1.9----30.07- 64.8 60.3----
2024-03-03 03:00 am- 0.0 2.9----30.07-0.05 65.1 60.1----
2024-03-03 02:54 am S 1.0 2.9----30.07- 65.5 59.9----
2024-03-03 02:48 amSSW 1.0 2.9----30.08- 65.3 59.9----
2024-03-03 02:42 amSSW 1.0 1.9----30.08- 65.3 59.9----
2024-03-03 02:36 am S 1.0 4.1----30.08- 64.9 59.9----
2024-03-03 02:30 am S 2.9 5.1----30.08- 64.8 59.9----
2024-03-03 02:24 am S 2.9 8.0----30.08- 64.6 59.9----
2024-03-03 02:18 amSSE 7.0 11.1----30.09- 64.6 59.9----
2024-03-03 02:12 am S 6.0 8.9----30.09- 65.1 59.9----
2024-03-03 02:06 am S 6.0 11.1----30.09- 65.1 59.9----
2024-03-03 02:00 amSSE 6.0 9.9----30.09-0.01 65.1 60.1----
2024-03-03 01:54 am SE 6.0 9.9----30.08- 65.3 60.1----
2024-03-03 01:48 am SE 5.1 9.9----30.08- 65.7 60.1----
2024-03-03 01:42 am SE 5.1 9.9----30.09- 66.0 60.3----
2024-03-03 01:36 amSSE 5.1 8.9----30.09- 65.8 60.3----
2024-03-03 01:30 amSSE 5.1 11.1----30.09- 65.3 60.4----
2024-03-03 01:24 am SE 6.0 8.9----30.09- 64.9 60.4----
2024-03-03 01:18 am SE 6.0 8.9----30.09- 64.8 60.6----
2024-03-03 01:12 amSSE 8.0 11.1----30.10- 64.4 60.6----
2024-03-03 01:06 amSSE 8.0 12.0----30.11- 64.4 60.6----
2024-03-03 01:00 am SE 5.1 8.0----30.10-0.02 64.0 60.8----
2024-03-03 12:54 amESE 4.1 8.0----30.09- 64.0 61.0----
2024-03-03 12:48 amESE 4.1 8.0----30.09- 63.7 61.0----
2024-03-03 12:42 am SE 4.1 11.1----30.09- 63.7 61.2----
2024-03-03 12:36 am SE 4.1 7.0----30.10- 63.7 61.2----
2024-03-03 12:30 am SE 4.1 7.0----30.10- 63.7 61.3----
2024-03-03 12:24 amESE 4.1 6.0----30.10- 63.7 61.3----
2024-03-03 12:18 amESE 4.1 8.0----30.11- 63.9 61.5----
2024-03-03 12:12 am SE 6.0 8.0----30.11- 63.9 61.7----
2024-03-03 12:06 am SE 5.1 6.0----30.11- 63.7 61.7----
2024-03-03 12:00 am SE 5.1 8.0----30.12-0.01 63.9 61.9----
2024-03-02 11:54 pmESE 4.1 8.0----30.11- 63.9 61.9----
2024-03-02 11:48 pm SE 4.1 7.0----30.11- 63.9 62.1----
2024-03-02 11:42 pm SE 4.1 8.0----30.12- 64.0 62.1----
2024-03-02 11:36 pmSSE 5.1 7.0----30.12- 64.2 62.1----
2024-03-02 11:30 pmESE 2.9 5.1----30.11- 64.2 62.2----
2024-03-02 11:24 pmSSE 4.1 5.1----30.11- 63.9 62.2----
2024-03-02 11:18 pmSSE 1.9 2.9----30.11- 63.9 62.2----
2024-03-02 11:12 pm E 1.9 6.0----30.11- 63.1 62.4----
2024-03-02 11:06 pm E 5.1 6.0----30.10- 63.0 62.4----
2024-03-02 11:00 pm E 4.1 7.0----30.09-0.05 62.8 62.6----
2024-03-02 10:54 pm E 2.9 5.1----30.09- 62.8 62.6----
2024-03-02 10:48 pm E 2.9 7.0----30.09- 62.8 62.8----
2024-03-02 10:42 pmESE 5.1 8.0----30.10- 62.8 62.8----
2024-03-02 10:36 pmENE 4.1 12.0----30.09- 63.0 62.8----
2024-03-02 10:30 pm E 6.0 11.1----30.10- 62.6 62.8----
2024-03-02 10:24 pm E 7.0 12.0----30.11- 63.1 62.8----
2024-03-02 10:18 pm E 5.1 13.0----30.11- 63.7 62.8----
2024-03-02 10:12 pm E 4.1 7.0----30.12- 64.0 62.8----
2024-03-02 10:06 pmESE 5.1 8.9----30.12- 64.2 62.8----
2024-03-02 10:00 pm E 2.9 8.0----30.11+0.03 64.2 62.8----
2024-03-02 09:54 pmENE 2.9 7.0----30.12- 64.2 63.0----
2024-03-02 09:48 pmENE 5.1 8.0----30.13- 63.9 63.0----
2024-03-02 09:42 pmENE 1.9 6.0----30.13- 64.0 63.0----
2024-03-02 09:36 pmESE 2.9 5.1----30.14- 63.7 63.1----
2024-03-02 09:30 pmESE 2.9 5.1----30.14- 63.9 63.1----
2024-03-02 09:24 pmESE 1.9 5.1----30.13- 63.5 63.1----
2024-03-02 09:18 pm E 1.9 4.1----30.13- 63.9 63.3----
2024-03-02 09:12 pmENE 2.9 6.0----30.13- 63.5 63.3----
2024-03-02 09:06 pm E 2.9 6.0----30.13- 63.3 63.3----
2024-03-02 09:00 pmENE 4.1 6.0----30.13+0.03 63.5 63.3----
2024-03-02 08:54 pm NE 1.9 6.0----30.13- 63.5 63.3----
2024-03-02 08:48 pm E 2.9 6.0----30.13- 63.3 63.3----
2024-03-02 08:42 pmESE 4.1 7.0----30.13- 63.3 63.3----
2024-03-02 08:36 pm NE 2.9 8.0----30.13- 62.8 63.3----
2024-03-02 08:30 pm N 7.0 14.0----30.12- 62.2 63.3----
2024-03-02 08:24 pmNNW 8.9 12.0----30.13- 62.8 63.3----
2024-03-02 08:18 pmNNW 7.0 12.0----30.14- 63.7 63.3----
2024-03-02 08:12 pmNNW 8.0 14.0----30.15- 64.6 63.3----
2024-03-02 08:06 pmNNW 8.9 14.0----30.15- 65.5 63.3----
2024-03-02 08:00 pmWNW 8.0 15.0----30.14+0.05 65.5 63.3----
2024-03-02 07:54 pm NW 8.0 19.0----30.14- 65.5 63.3----
2024-03-02 07:48 pmWNW 12.0 17.1----30.14- 65.3 63.3----
2024-03-02 07:42 pmENE 2.9 5.1----30.11- 65.5 63.3----
2024-03-02 07:36 pmESE 1.9 2.9----30.11- 66.0 63.3----
2024-03-02 07:30 pm E 2.9 2.9----30.11- 65.7 63.3----
2024-03-02 07:24 pm S 1.0 5.1----30.11- 65.5 63.3----
2024-03-02 07:18 pmESE 2.9 4.1----30.10- 65.3 63.3----
2024-03-02 07:12 pmESE 1.9 6.0----30.10- 65.5 63.3----
2024-03-02 07:06 pm E 2.9 7.0----30.09- 65.5 63.1----
2024-03-02 07:00 pm E 5.1 6.0----30.08-0.01 65.7 63.1----
2024-03-02 06:54 pm E 2.9 5.1----30.08- 66.0 63.1----
2024-03-02 06:48 pm E 4.1 6.0----30.08-- 63.0----
2024-03-02 06:42 pm E 2.9 6.0----30.09-- 63.0----
2024-03-02 06:36 pm E 2.9 5.1----30.09-- 62.8----
2024-03-02 06:30 pmENE 4.1 6.0----30.09- 66.0 62.8----
2024-03-02 06:24 pm NE 1.9 4.1----30.09- 65.7 62.6----
2024-03-02 06:18 pm NE 2.9 8.9----30.09-- 62.6----
2024-03-02 06:12 pm NE 4.1 6.0----30.10-- 62.4----
2024-03-02 06:06 pmNNE 4.1 8.9----30.10-- 62.4----
2024-03-02 06:00 pm NE 4.1 6.0----30.10- 65.1 62.4----
2024-03-02 05:54 pmNNE 5.1 8.9----30.11- 64.8 62.4----
2024-03-02 05:48 pmNNE 4.1 12.0----30.10- 64.9 62.2----
2024-03-02 05:42 pm N 6.0 9.9----30.10- 64.0 62.2----
2024-03-02 05:36 pm NE 2.9 8.0----30.09- 65.5 62.2----
2024-03-02 05:30 pmENE 4.1 8.0----30.09-- 62.4----
2024-03-02 05:24 pmENE 4.1 8.9----30.09-- 62.4----
2024-03-02 05:18 pmENE 5.1 8.9----30.09-- 62.4----
2024-03-02 05:12 pmENE 4.1 8.0----30.09-- 62.4----
2024-03-02 05:06 pm E 2.9 6.0----30.09-- 62.4----
2024-03-02 05:00 pm E 2.9 8.0----30.09+0.00 65.1 62.4----
2024-03-02 04:54 pm E 5.1 8.0----30.09- 65.1 62.4----
2024-03-02 04:48 pm E 4.1 8.0----30.10- 65.5 62.4----
2024-03-02 04:42 pm E 4.1 6.0----30.10- 66.0 62.4----
2024-03-02 04:36 pm E 1.0 2.9----30.11- 66.4 62.4----
2024-03-02 04:30 pmESE 1.9 4.1----30.10- 66.9-----
2024-03-02 04:24 pmENE 4.1 8.0----30.09- 67.1-----
2024-03-02 04:18 pmENE 5.1 8.9----30.09- 66.7 62.4----
2024-03-02 04:12 pmENE 2.9 8.0----30.09- 66.6 62.4----
2024-03-02 04:06 pm NE 4.1 7.0----30.09- 66.4 62.4----
2024-03-02 04:00 pm NE 2.9 7.0----30.09-0.03 66.9 62.4----
2024-03-02 03:54 pm NE 4.1 8.0----30.09- 67.6 62.4----
2024-03-02 03:48 pmENE 2.9 7.0----30.09-- 62.4----
2024-03-02 03:42 pmENE 2.9 8.0----30.09-- 62.2----
2024-03-02 03:36 pmENE 5.1 8.9----30.09-- 62.2----
2024-03-02 03:30 pmENE 2.9 8.9----30.09- 68.2 62.1----
2024-03-02 03:24 pmENE 5.1 8.0----30.09- 68.2 62.1----
2024-03-02 03:18 pmENE 5.1 8.9----30.09- 67.8 61.9----
2024-03-02 03:12 pmENE 4.1 8.0----30.09- 68.2 61.9----
2024-03-02 03:06 pmENE 5.1 8.9----30.08- 69.3 61.9----
2024-03-02 03:00 pm--------- 70.5-----
2024-03-02 02:54 pm--------- 70.7-----
2024-03-02 02:48 pm NE 4.1 7.0----30.09- 72.0 61.5----
2024-03-02 02:42 pmENE 2.9 8.0----30.09- 74.8 61.3----
2024-03-02 02:36 pm NE 2.9 5.1----30.08- 75.6 61.0----
2024-03-02 02:30 pm- 0.0 1.9----30.09- 74.7 60.8----
2024-03-02 02:24 pm W 1.9 4.1----30.09- 72.1 60.6----
2024-03-02 02:18 pm W 2.9 4.1----30.09- 74.5 60.6----
2024-03-02 02:12 pmWSW 4.1 5.1----30.09- 78.8 60.4----
2024-03-02 02:06 pmWSW 2.9 5.1----30.09- 78.1 60.4----
2024-03-02 02:00 pmWSW 4.1 6.0----30.09-0.06 77.7 60.3----
2024-03-02 01:54 pm W 4.1 6.0----30.09- 76.5 60.3----
2024-03-02 01:48 pmWSW 4.1 7.0----30.10- 76.6 60.3----
2024-03-02 01:42 pmWSW 6.0 8.0----30.10- 77.4 60.3----
2024-03-02 01:36 pmWSW 6.0 8.9----30.10- 77.9 60.3----
2024-03-02 01:30 pmWSW 5.1 7.0----30.11- 77.0 60.3----
2024-03-02 01:24 pm SW 5.1 7.0----30.11- 75.7 60.3----
2024-03-02 01:18 pmWSW 4.1 7.0----30.11- 75.0 60.3----
2024-03-02 01:12 pmWSW 5.1 8.0----30.12- 75.4 60.4----
2024-03-02 01:06 pm SW 5.1 8.0----30.12- 75.6 60.4----
2024-03-02 01:00 pmWSW 4.1 7.0----30.12-0.03 76.3 60.4----
2024-03-02 12:54 pm SW 2.9 6.0----30.13- 76.1 60.4----
2024-03-02 12:48 pmWSW 4.1 7.0----30.13- 75.0 60.6----
2024-03-02 12:42 pm SW 2.9 6.0----30.13- 75.9 60.6----
2024-03-02 12:36 pmWSW 5.1 8.9----30.14- 75.6 60.6----
2024-03-02 12:30 pmWSW 5.1 8.9----30.14- 75.2 60.6----
2024-03-02 12:24 pm SW 2.9 7.0----30.14- 74.8 60.8----
2024-03-02 12:18 pm SW 2.9 6.0----30.14- 75.2 60.8----
2024-03-02 12:12 pmWSW 4.1 6.0----30.14- 75.6 60.8----
2024-03-02 12:06 pmWSW 5.1 8.0----30.14- 76.5 60.8----
2024-03-02 12:00 pm SW 4.1 6.0----30.15+0.01 75.4 60.8----
2024-03-02 11:54 amWSW 5.1 6.0----30.15- 73.4 60.8----
2024-03-02 11:48 amWSW 2.9 5.1----30.15- 73.8 60.8----
2024-03-02 11:42 amWSW 4.1 6.0----30.16- 73.4 60.8----
2024-03-02 11:36 amWSW 4.1 7.0----30.16- 73.9 60.8----
2024-03-02 11:30 am SW 4.1 6.0----30.16- 74.7 61.0----
2024-03-02 11:24 amWSW 2.9 4.1----30.15- 74.5 61.0----
2024-03-02 11:18 amWSW 1.9 2.9----30.15- 75.6 61.0----
2024-03-02 11:12 am W 1.9 2.9----30.15- 75.0 61.0----
2024-03-02 11:06 am W 2.9 5.1----30.15- 73.2 61.2----
2024-03-02 11:00 am W 2.9 4.1----30.16+0.04 74.1 61.2----
2024-03-02 10:54 amSSW 2.9 6.0----30.16- 75.2 61.3----